Location: Melque
(41.0517°N, 4.4694°W)
Time: 18:53:19
(UTC+00:00)

Meteor 1-20 Rocket - Pass Details

Date: 16 March 2026
Orbit: 817 x 891 km, 81.2° (Epoch: 14 April)

Event Time Altitude Azimuth Distance (km) Brightness Sun altitude
Rises 20:12:51 0° 249° (WSW) 3,493 8.2 -20.8°
Reaches altitude 10° 20:17:55 10° 287° (WNW) 2,558 7.9 -21.7°
Maximum altitude 20:19:04 11° 299° (WNW) 2,518 7.8 -21.9°
Drops below altitude 10° 20:20:14 10° 311° (NW) 2,558 7.7 -22.1°
Sets 20:25:19 0° 349° (N) 3,492 7.8 -23.0°
